TimeEDT,TemperatureF,Dew PointF,Humidity,Sea Level PressureIn,VisibilityMPH,Wind Direction,Wind SpeedMPH,Gust SpeedMPH,PrecipitationIn,Events,Conditions,WindDirDegrees,DateUTC
12:54 AM,62.1,57.9,86,30.09,-9999.0,Variable,5.8,-,N/A,,Unknown,0,2013-09-20 04:54:00
1:54 AM,62.1,59.0,90,30.09,-9999.0,Calm,Calm,-,N/A,,Unknown,0,2013-09-20 05:54:00
2:54 AM,62.1,59.0,90,30.09,-9999.0,WSW,3.5,-,N/A,,Unknown,240,2013-09-20 06:54:00
3:54 AM,60.1,57.9,93,30.10,-9999.0,Calm,Calm,-,N/A,,Unknown,0,2013-09-20 07:54:00
4:54 AM,60.1,59.0,96,30.09,-9999.0,Calm,Calm,-,N/A,,Unknown,0,2013-09-20 08:54:00
5:54 AM,57.9,55.9,93,30.09,-9999.0,Calm,Calm,-,N/A,,Unknown,0,2013-09-20 09:54:00
6:54 AM,59.0,57.9,96,30.09,-9999.0,Calm,Calm,-,N/A,,Unknown,0,2013-09-20 10:54:00
7:54 AM,62.1,62.1,100,30.10,-9999.0,Calm,Calm,-,N/A,,Unknown,0,2013-09-20 11:54:00
8:54 AM,66.0,61.0,84,30.11,-9999.0,West,3.5,-,N/A,,Unknown,260,2013-09-20 12:54:00
9:54 AM,66.9,62.1,84,30.12,-9999.0,West,3.5,-,N/A,,Unknown,260,2013-09-20 13:54:00
10:54 AM,69.1,62.1,78,30.12,-9999.0,Variable,4.6,-,N/A,,Unknown,0,2013-09-20 14:54:00
11:54 AM,71.1,61.0,70,30.11,-9999.0,NW,5.8,-,N/A,,Unknown,320,2013-09-20 15:54:00
12:54 PM,73.0,59.0,61,30.10,-9999.0,Calm,Calm,-,N/A,,Unknown,0,2013-09-20 16:54:00
1:54 PM,73.0,60.1,64,30.08,-9999.0,Variable,3.5,-,N/A,,Unknown,0,2013-09-20 17:54:00
2:54 PM,71.1,61.0,70,30.07,-9999.0,South,6.9,-,N/A,,Unknown,170,2013-09-20 18:54:00
3:54 PM,71.1,62.1,73,30.06,-9999.0,Variable,4.6,-,N/A,,Unknown,0,2013-09-20 19:54:00
4:54 PM,69.1,61.0,75,30.06,-9999.0,Variable,4.6,-,N/A,,Unknown,0,2013-09-20 20:54:00
5:54 PM,68.0,61.0,78,30.06,-9999.0,SSW,5.8,-,N/A,,Unknown,200,2013-09-20 21:54:00
6:54 PM,64.9,60.1,84,30.06,-9999.0,Calm,Calm,-,N/A,,Unknown,0,2013-09-20 22:54:00
7:54 PM,64.0,61.0,90,30.07,-9999.0,Calm,Calm,-,N/A,,Unknown,0,2013-09-20 23:54:00
8:54 PM,63.0,61.0,93,30.07,-9999.0,Calm,Calm,-,N/A,,Unknown,0,2013-09-21 00:54:00
9:54 PM,63.0,60.1,90,30.06,-9999.0,Calm,Calm,-,N/A,,Unknown,0,2013-09-21 01:54:00
10:54 PM,63.0,60.1,90,30.05,-9999.0,Calm,Calm,-,N/A,,Unknown,0,2013-09-21 02:54:00
11:54 PM,62.1,59.0,90,30.06,-9999.0,Calm,Calm,-,N/A,,Unknown,0,2013-09-21 03:54:00